Flag for U.S.A. Weather past 2 weeks in Tempe, Arizona, U.S.A.

Now
62 °F

Scattered clouds.


Feels Like: 62 °F
Forecast: 42 / 61 °F
Wind: 10 mph from West

Location: Phoenix Sky Harbor International Airport

Current Time: Dec 25, 2014 at 1:07:04 PM

Latest Report: Dec 25, 2014 at 11:51 AM


Visibility: 10 mi

Pressure: 29.71 "Hg

Humidity: 24%

Dew point: 25 °F

Location of TempeLocation

Historic Weather in Tempe — Graph

°F

Tempe temperature yesterday

Maximum temperature yesterday: 64 °F (at 1:51 PM)
Minimum temperature yesterday: 46 °F (at 2:51 AM)
Average temperature yesterday: 55 °F

Past Weeks' High & Low Weather Summary

 TemperatureHumidityPressure
High77 °F (Dec 10, 3:51 PM)93% (Dec 13, 3:51 AM)30.22 "Hg (Dec 13, 3:51 AM)
Low45 °F (Dec 19, 6:51 AM)11% (Dec 23, 4:51 PM)29.69 "Hg (Dec 25, 5:51 AM)
Average57 °F58%30.01 "Hg
* Reported Dec 10 11:51 AM — Dec 25 11:51 AM, Tempe, Weather by CustomWeather, © 2014

Note: Actual official high and low records may vary slightly from our data, if they occured in-between our weather recording intervals... More about our weather records

Advertising

Tempe weather history for previous 24 hours

 ConditionsComfort  
Time TempWeatherWind HumidityBarometerVisibility
11:51 AM
Dec 25
62 °FScattered clouds.10 mph24%29.71 "Hg10 mi
10:51 AM59 °FScattered clouds.3 mph31%29.72 "Hg10 mi
9:51 AM54 °FScattered clouds.No wind38%29.72 "Hg10 mi
8:51 AM49 °FBroken clouds.No wind50%29.71 "Hg10 mi
7:51 AM46 °FPartly sunny.3 mph56%29.71 "Hg10 mi
6:51 AM47 °FPassing clouds.5 mph50%29.70 "Hg10 mi
5:51 AM48 °FPassing clouds.7 mph50%29.69 "Hg10 mi
4:51 AM48 °FPassing clouds.8 mph52%29.69 "Hg10 mi
3:51 AM47 °FClear.7 mph59%29.71 "Hg10 mi
2:51 AM50 °FPassing clouds.6 mph50%29.73 "Hg10 mi
1:51 AM51 °FPassing clouds.8 mph42%29.74 "Hg10 mi
12:51 AM52 °FMostly cloudy.6 mph41%29.77 "Hg10 mi
11:51 PM
Dec 24
53 °FOvercast.3 mph35%29.79 "Hg10 mi
10:51 PM54 °FOvercast.5 mph35%29.80 "Hg10 mi
9:51 PM54 °FOvercast.6 mph34%29.83 "Hg10 mi
8:51 PM55 °FOvercast.No wind34%29.85 "Hg10 mi
7:51 PM56 °FPassing clouds.No wind34%29.87 "Hg10 mi
6:51 PM58 °FPassing clouds.3 mph23%29.90 "Hg10 mi
5:51 PM60 °FPassing clouds.No wind21%29.92 "Hg10 mi
4:51 PM63 °FPartly sunny.No wind13%29.93 "Hg10 mi
3:51 PM64 °FPartly sunny.3 mph13%29.94 "Hg10 mi
2:51 PM63 °FPartly sunny.No wind13%29.97 "Hg10 mi
1:51 PM64 °FPartly sunny.N/A13%29.99 "Hg10 mi
Weather by CustomWeather, © 2014

See weather overviewHow to use our weather pages